Date String (YYYY-MM-DD hh:mm:ss) UTC,Instrument flags,Ambient pressure (hPa),Sample flow (lpm),Bypass flow (lpm),Sample temperature (°C),Ambient temperature (°C),ASC tube jacket temperature (°C),LED temperature (°C),Box temperature (°C),Sample RH (%),Span deviation,Mass concentration (μg/m³),Mass concentration (μg/m³),Mass concentration (μg/m³)
DateTimeUTC,F1_M11,P_M11,Q1_M11,Q2_M11,T1_M11,T2_M11,T3_M11,T4_M11,T5_M11,U1_M11,ZSPAN_M11,X0_M11,X2_M11,X1_M11
2022-05-13 21:00:00,,0824.1,5.00,0.00,29.6,28.8,00.0,38.6,31.4,06.4,0000.0,0008.82,0003.46,0002.17
2022-05-13 21:01:00,,0824.0,5.01,0.00,29.6,28.8,00.0,38.5,31.4,06.6,0000.0,0008.67,0003.42,0002.15
2022-05-13 21:02:00,,0824.0,5.00,0.00,29.6,28.7,00.0,38.6,31.4,06.3,0000.0,0008.78,0003.44,0002.12
2022-05-13 21:03:00,,0824.1,4.99,0.00,29.6,28.7,00.0,38.6,31.4,06.1,0000.0,0008.83,0003.42,0002.10
2022-05-13 21:04:00,,0824.1,5.01,0.00,29.6,28.8,00.0,38.6,31.4,06.4,0000.0,0008.73,0003.37,0002.08
2022-05-13 21:05:00,,0824.2,5.00,0.00,29.6,28.8,00.0,38.6,31.4,06.5,0000.0,0008.19,0003.36,0002.08
2022-05-13 21:06:00,,0824.1,5.00,0.00,29.6,28.9,00.0,38.6,31.4,06.7,0000.0,0008.16,0003.42,0002.08
2022-05-13 21:07:00,,0824.2,5.00,0.00,29.7,28.9,00.0,38.6,31.4,07.0,0000.0,0007.94,0003.45,0002.08
2022-05-13 21:08:00,,0824.0,5.00,0.00,29.7,28.9,00.0,38.6,31.4,06.1,0000.0,0008.09,0003.43,0002.06
2022-05-13 21:09:00,,0824.1,5.01,0.00,29.7,28.9,00.0,38.6,31.5,06.2,0000.0,0007.76,0003.40,0002.05
2022-05-13 21:10:00,,0824.1,5.00,0.00,29.7,28.9,00.0,38.6,31.5,06.2,0000.0,0007.40,0003.35,0002.04
2022-05-13 21:11:00,,0824.1,5.00,0.00,29.7,28.9,00.0,38.6,31.5,06.3,0000.0,0007.44,0003.37,0002.04
2022-05-13 21:12:00,,0823.9,5.00,0.00,29.7,29.0,00.0,38.6,31.5,06.0,0000.0,0007.61,0003.41,0002.04
2022-05-13 21:13:00,,0824.0,5.00,0.00,29.7,28.9,00.0,38.6,31.5,05.8,0000.0,0007.58,0003.40,0002.06
2022-05-13 21:14:00,,0824.0,4.99,0.00,29.7,28.9,00.0,38.6,31.5,05.8,0000.0,0007.45,0003.38,0002.09
2022-05-13 21:15:00,,0824.0,5.00,0.00,29.8,29.0,00.0,38.6,31.5,06.2,0000.0,0007.47,0003.38,0002.10
2022-05-13 21:16:00,,0823.9,5.00,0.00,29.8,29.0,00.0,38.6,31.6,06.0,0000.0,0007.70,0003.41,0002.10
2022-05-13 21:17:00,,0824.0,5.02,0.00,29.8,29.0,00.0,38.6,31.6,06.0,0000.0,0007.72,0003.38,0002.09
2022-05-13 21:18:00,,0824.0,5.00,0.00,29.8,29.0,00.0,38.7,31.5,06.3,0000.0,0007.52,0003.32,0002.07
2022-05-13 21:19:00,,0824.1,4.99,0.00,29.8,27.6,00.0,38.7,31.3,06.9,0000.0,0007.09,0003.29,0002.06
2022-05-13 21:20:00,,0824.1,5.00,0.00,29.6,25.8,00.0,38.6,30.9,06.8,0000.0,0006.97,0003.28,0002.05
2022-05-13 21:21:00,,0823.9,5.00,0.00,29.6,25.9,00.0,38.6,30.9,06.2,0000.0,0007.10,0003.30,0002.05
2022-05-13 21:22:00,,0823.9,4.99,0.00,29.5,26.3,00.0,38.5,31.0,06.0,0000.0,0007.06,0003.29,0002.04
2022-05-13 21:23:00,,0823.8,5.00,0.00,29.5,26.7,00.0,38.5,31.1,06.1,0000.0,0007.04,0003.30,0002.05
2022-05-13 21:24:00,,0823.9,5.01,0.00,29.5,27.1,00.0,38.4,31.1,05.8,0000.0,0007.05,0003.32,0002.07
2022-05-13 21:25:00,,0824.0,5.00,0.00,29.5,27.4,00.0,38.4,31.1,06.4,0000.0,0007.27,0003.35,0002.06
2022-05-13 21:26:00,,0824.1,5.00,0.00,29.5,27.7,00.0,38.4,31.1,06.3,0000.0,0007.28,0003.36,0002.05
2022-05-13 21:27:00,,0824.0,4.99,0.00,29.5,27.9,00.0,38.4,31.2,06.4,0000.0,0006.77,0003.34,0002.04
2022-05-13 21:28:00,,0823.9,5.01,0.00,29.5,28.1,00.0,38.4,31.2,05.5,0000.0,0006.41,0003.31,0002.06
2022-05-13 21:29:00,,0824.0,5.00,0.00,29.5,28.2,00.0,38.4,31.2,05.7,0000.0,0006.48,0003.34,0002.07
2022-05-13 21:30:00,,0824.0,5.00,0.00,29.5,28.4,00.0,38.4,31.3,06.0,0000.0,0006.75,0003.37,0002.08
2022-05-13 21:31:00,,0824.0,5.01,0.00,29.6,28.5,00.0,38.4,31.3,05.9,0000.0,0007.01,0003.41,0002.09
2022-05-13 21:32:00,,0824.0,5.00,0.00,29.6,28.5,00.0,38.4,31.3,05.7,0000.0,0007.32,0003.43,0002.10
2022-05-13 21:33:00,,0824.1,5.00,0.00,29.6,28.6,00.0,38.5,31.3,05.9,0000.0,0007.44,0003.44,0002.11
2022-05-13 21:34:00,,0824.0,4.99,0.00,29.6,28.7,00.0,38.5,31.3,06.0,0000.0,0007.31,0003.40,0002.09
2022-05-13 21:35:00,,0824.0,5.01,0.00,29.6,28.7,00.0,38.5,31.3,05.7,0000.0,0007.49,0003.36,0002.07
2022-05-13 21:36:00,,0824.1,5.01,0.00,29.6,28.8,00.0,38.5,31.4,05.9,0000.0,0007.63,0003.33,0002.07
2022-05-13 21:37:00,,0824.0,5.00,0.00,29.6,28.8,00.0,38.5,31.4,05.8,0000.0,0007.71,0003.34,0002.09
2022-05-13 21:38:00,,0824.0,4.99,0.00,29.6,28.8,00.0,38.5,31.4,06.2,0000.0,0007.81,0003.37,0002.11
2022-05-13 21:39:00,,0823.9,5.00,0.00,29.6,28.8,00.0,38.5,31.4,05.9,0000.0,0007.85,0003.39,0002.12
2022-05-13 21:40:00,,0823.9,5.00,0.00,29.7,28.8,00.0,38.5,31.4,05.7,0000.0,0007.75,0003.36,0002.12
2022-05-13 21:41:00,,0824.0,4.99,0.00,29.7,28.9,00.0,38.5,31.5,05.9,0000.0,0007.58,0003.32,0002.11
2022-05-13 21:42:00,,0824.0,5.00,0.00,29.7,28.9,00.0,38.5,31.5,06.0,0000.0,0007.60,0003.33,0002.11
2022-05-13 21:43:00,,0824.1,5.00,0.00,29.7,28.9,00.0,38.6,31.5,05.9,0000.0,0007.47,0003.32,0002.10
2022-05-13 21:44:00,,0824.1,4.99,0.00,29.7,28.9,00.0,38.6,31.5,06.3,0000.0,0007.27,0003.28,0002.10
2022-05-13 21:45:00,,0824.1,5.01,0.00,29.7,29.0,00.0,38.6,31.5,05.8,0000.0,0007.27,0003.30,0002.14
2022-05-13 21:46:00,,0824.0,5.00,0.00,29.8,29.0,00.0,38.6,31.5,05.7,0000.0,0006.84,0003.31,0002.16
2022-05-13 21:47:00,,0824.1,4.99,0.00,29.8,29.0,00.0,38.6,31.6,05.6,0000.0,0006.35,0003.31,0002.17
2022-05-13 21:48:00,,0823.9,5.00,0.00,29.8,29.1,00.0,38.6,31.6,06.0,0000.0,0006.16,0003.32,0002.17
2022-05-13 21:49:00,,0824.0,5.00,0.00,29.8,28.1,00.0,38.6,31.3,06.2,0000.0,0005.97,0003.30,0002.17
2022-05-13 21:50:00,,0824.0,5.01,0.00,29.7,26.5,00.0,38.6,31.1,06.2,0000.0,0005.86,0003.28,0002.16
2022-05-13 21:51:00,,0824.0,5.00,0.00,29.6,26.5,00.0,38.6,31.1,06.3,0000.0,0005.81,0003.27,0002.17
2022-05-13 21:52:00,,0824.0,4.99,0.00,29.6,26.9,00.0,38.6,31.2,06.2,0000.0,0006.05,0003.28,0002.20
2022-05-13 21:53:00,,0823.9,5.02,0.00,29.6,27.2,00.0,38.5,31.2,05.9,0000.0,0005.93,0003.27,0002.21
2022-05-13 21:54:00,,0823.9,5.00,0.00,29.6,27.5,00.0,38.5,31.2,06.0,0000.0,0005.91,0003.28,0002.24
2022-05-13 21:55:00,,0824.0,5.00,0.00,29.6,27.8,00.0,38.5,31.3,06.0,0000.0,0006.34,0003.34,0002.26
2022-05-13 21:56:00,,0824.0,4.99,0.00,29.6,28.0,00.0,38.5,31.3,05.8,0000.0,0006.75,0003.37,0002.26
2022-05-13 21:57:00,,0823.9,5.00,0.00,29.6,28.2,00.0,38.5,31.3,05.8,0000.0,0006.78,0003.38,0002.27
2022-05-13 21:58:00,,0823.9,5.00,0.00,29.6,28.3,00.0,38.5,31.3,06.1,0000.0,0006.95,0003.41,0002.27
2022-05-13 21:59:00,,0823.9,5.00,0.00,29.6,28.4,00.0,38.5,31.3,06.5,0000.0,0006.91,0003.39,0002.28
